Torna al catalogo

SL-12 R/B(2)

AttivoHEO
NORAD 26855·ROCKET BODY·🇷🇺 Russia

Lanciato Jun 16, 2001 da Baikonur Cosmodrome

Loading…

Prossimi Passaggi (prossime 24 ore)

TLE

In scadenzaSource: Space-Track

Epoca: Aug 31, 2026, 05:47 UTC

1 26855U 01025C   26243.24110485 -.00000081  00000-0  00000+0 0  9995
2 26855  15.2002  95.8247 4988976 283.5879 312.2461  1.84790175170162

Traccia SL-12 R/B(2) in tempo reale con AllMySat

Download on the App Store